Regional Weather Roundup
Issued by NWS Kansas City/Pleasant Hill, MO

Home | Current Version | Previous Version | Graphics & Text | Print | Product List | Glossary Off
Versions: 1 2 3 4 5 6 7 8 9 10 11 12 13 14 15 16 17 18 19 20 21 22 23 24 25 26 27 28 29 30 31 32 33 34 35 36 37 38 39 40 41 42 43 44 45 46 47 48 49 50

000
ASUS43 KEAX 222310
RWREAX

WEATHER ROUNDUP FOR EASTERN KANSAS AND NORTHWEST MISSOURI
NATIONAL WEATHER SERVICE KANSAS CITY/PLEASANT HILL MO
500 PM CST WED NOV 22 2017

KSZ040-057-103>105-MOZ028-029-037-043-230000-
...KANSAS CITY METROPOLITAN AREA...

CITY           SKY/WX    TMP DP  RH WIND       PRES   REMARKS
K.C. INTL      MOCLDY    37  17  44 S8        30.23S WCI  31
K.C. DOWNTOWN  CLOUDY    40  16  37 S8        30.24F WCI  34
LEES SUMMIT    CLOUDY    39  17  41 SW6       30.25R WCI  35
OLATHE - IXD   CLOUDY    39  17  41 S7        30.24S WCI  34
OLATHE - OJC   CLOUDY    39  16  39 S6        30.24S WCI  35
LAWRENCE       CLOUDY    41  18  39 SE7       30.23F

$$

MOZ001>008-011>017-020>025-030>033-038>040-044>046-053-054-230000-
...NORTHERN AND CENTRAL MISSOURI...

CITY           SKY/WX    TMP DP  RH WIND       PRES   REMARKS
ST. JOSEPH     CLOUDY    39  16  39 S10       30.21F WCI  32
MOSBY          CLOUDY    39  12  33 CALM      30.24S
WARRENSBURG    CLOUDY    37  18  44 S5        30.24F WCI  34
WHITEMAN AFB   CLOUDY    35  17  47 S7        30.19F WCI  29
CLINTON        PTCLDY    37  18  44 MISG      30.25F
SEDALIA        CLEAR     40  17  39 S3        30.26F
WARSAW         NOT AVBL
CHILLICOTHE      N/A     37  15  40 S5        30.26F WCI  33
KIRKSVILLE     CLEAR     33  15  47 S6        30.23F WCI  28

$$

MOZ041-047>049-056>058-063>065-088>090-097-230000-
...EASTERN AND SOUTHERN MISSOURI...

CITY           SKY/WX    TMP DP  RH WIND       PRES   REMARKS
ST. LOUIS INTL MOCLDY    37  17  44 CALM      30.29F
SPIRIT OF STL  MOCLDY    34  21  59 CALM      30.30S
COLUMBIA       CLEAR     39  12  33 CALM      30.27F
JEFFERSON CITY CLEAR     41  16  36 CALM      30.29F
ROLLA          CLEAR     38  14  37 CALM      30.27F
OSAGE BEACH    CLEAR     40  11  30 CALM      30.28F
SPRINGFIELD    CLEAR     41  20  43 SW3       30.24F
BRANSON        PTCLDY    41  18  38 CALM      30.27S
JOPLIN         CLEAR     42  21  43 CALM      30.26F
WEST PLAINS    CLEAR     43  12  28 CALM      30.25F

$$

IAZ060-094-KSZ022-034>040-054-083-096-NEZ052-066-093-230000-
...KANSAS...SOUTHEAST NEBRASKA AND IOWA...

CITY           SKY/WX    TMP DP  RH WIND       PRES   REMARKS
TOPEKA         CLEAR     43  17  35 S9        30.21F
MANHATTAN      CLEAR     47  18  31 S12       30.18F
EMPORIA        CLEAR     42  17  36 S9        30.22F
CHANUTE        CLOUDY    40  19  43 S7        30.26F
WICHITA        PTCLDY    45  20  36 S13       30.22S
OMAHA          PTCLDY    40  17  39 S13       30.14F WCI  32
LINCOLN        CLEAR     38  18  44 S10       30.14F WCI  31
FALLS CITY     CLOUDY    40  16  37 S7        30.18F
LAMONI         PTCLDY    36  15  42 S8        30.19F WCI  30
DES MOINES     CLOUDY    37  13  37 S10       30.17F WCI  30

$$




USA.gov is the U.S. government's official web portal to all federal, state and local government web resources and services.